{"data":{"norad_id":59297,"epoch":"2026-09-21T06:32:01.136832Z","epoch_age_seconds":95587,"freshness":"FRESH","line1":"1 59297U 24056B   26264.27223538  .00000117  00000+0  13783-4 0  9995","line2":"2 59297  43.0019 206.3760 0000802 328.7891  31.2913 15.27575665141186","mean_motion":15.27575665,"eccentricity":8.02e-5,"inclination_deg":43.0019,"raan_deg":206.376,"arg_perigee_deg":328.7891,"mean_anomaly_deg":31.2913,"bstar":1.3783e-5,"rev_number":14118,"period_min":94.267016226656,"perigee_km":482.51180845391,"apogee_km":483.6123447858,"semimajor_km":6861.1990766199,"source":"CELESTRAK","updated_at":"2026-09-22T09:00:48.874972Z"}}